PUA9504 SBMO-SUMU

Flight info

Callsign PUA9504
Flight time N/A
Altitude 34000
Route OBLAX UZ21 OBDUV/N0462F360 UZ21 VUNOX UZ38 UGUTU UM792 CRR
Aircraft A319/M-SDE3FGHIRWY/LB1

Departure

Time 2026-04-16 15:43
Airport Zumbi dos Palmares International Airport (SBMO)

Arrival

Time N/A
Airport Carrasco General Cesáreo L. Berisso International Airport (SUMU)
Time Latitude Longitude Altitude Speed Heading
2026-04-16 14:48 -9.51400 -35.79209 401 ft 0 kts 191°
2026-04-16 15:34 -9.51381 -35.79205 401 ft 4 kts 196°
2026-04-16 15:34 -9.51356 -35.79195 398 ft 4 kts 214°
2026-04-16 15:35 -9.51340 -35.79178 396 ft 4 kts 268°
2026-04-16 15:35 -9.51340 -35.79172 398 ft 0 kts 281°
2026-04-16 15:37 -9.51338 -35.79183 397 ft 4 kts 281°
2026-04-16 15:37 -9.51330 -35.79233 401 ft 10 kts 279°
2026-04-16 15:37 -9.51312 -35.79326 401 ft 16 kts 281°
2026-04-16 15:38 -9.51268 -35.79418 401 ft 14 kts 336°
2026-04-16 15:38 -9.51196 -35.79467 400 ft 13 kts 301°
2026-04-16 15:38 -9.51177 -35.79553 400 ft 13 kts 279°
2026-04-16 15:38 -9.51160 -35.79643 399 ft 13 kts 282°
2026-04-16 15:39 -9.51141 -35.79734 401 ft 13 kts 283°
2026-04-16 15:39 -9.51124 -35.79828 401 ft 14 kts 279°
2026-04-16 15:39 -9.51107 -35.79924 401 ft 14 kts 281°
2026-04-16 15:39 -9.51087 -35.80023 399 ft 14 kts 282°
2026-04-16 15:40 -9.51067 -35.80124 401 ft 15 kts 280°
2026-04-16 15:40 -9.51053 -35.80229 401 ft 15 kts 276°
2026-04-16 15:40 -9.51026 -35.80332 398 ft 15 kts 316°
2026-04-16 15:40 -9.50923 -35.80337 401 ft 15 kts
2026-04-16 15:41 -9.50872 -35.80282 398 ft 9 kts 86°
2026-04-16 15:41 -9.50876 -35.80259 401 ft 0 kts 107°
2026-04-16 15:42 -9.50878 -35.80253 401 ft 10 kts 106°
2026-04-16 15:42 -9.50939 -35.79942 402 ft 78 kts 100°
2026-04-16 15:42 -9.51074 -35.79220 397 ft 131 kts 101°
2026-04-16 15:42 -9.51288 -35.78194 626 ft 153 kts 104°
2026-04-16 15:43 -9.51504 -35.77125 1116 ft 159 kts 104°
2026-04-16 15:43 -9.51718 -35.76019 1553 ft 163 kts 105°
2026-04-16 15:43 -9.51951 -35.74819 1797 ft 185 kts 104°
2026-04-16 15:43 -9.52221 -35.73466 2043 ft 206 kts 105°
2026-04-16 15:44 -9.52998 -35.72199 2232 ft 227 kts 144°
2026-04-16 15:44 -9.54561 -35.71716 2569 ft 252 kts 184°
2026-04-16 15:44 -9.56200 -35.72391 3291 ft 265 kts 220°
2026-04-16 15:44 -9.57192 -35.73973 4080 ft 274 kts 254°
2026-04-16 15:45 -9.57454 -35.75901 4882 ft 279 kts 263°
2026-04-16 15:45 -9.57860 -35.77834 5611 ft 283 kts 252°
2026-04-16 15:45 -9.58628 -35.79668 6379 ft 285 kts 233°
2026-04-16 15:45 -9.59905 -35.81204 7075 ft 287 kts 225°
2026-04-16 15:46 -9.61264 -35.82696 7813 ft 290 kts 225°
2026-04-16 15:46 -9.62644 -35.84199 8574 ft 292 kts 226°
2026-04-16 15:46 -9.64039 -35.85714 9301 ft 296 kts 225°
2026-04-16 15:46 -9.65455 -35.87251 9996 ft 300 kts 225°
2026-04-16 15:47 -9.66918 -35.88838 10278 ft 320 kts 226°
2026-04-16 15:47 -9.68495 -35.90549 10416 ft 343 kts 226°
2026-04-16 15:47 -9.70143 -35.92343 10736 ft 357 kts 226°
2026-04-16 15:47 -9.71850 -35.94208 11288 ft 363 kts 226°
2026-04-16 15:48 -9.73578 -35.96098 11889 ft 367 kts 227°
2026-04-16 15:48 -9.75319 -35.98004 12508 ft 371 kts 227°
2026-04-16 15:48 -9.77079 -35.99931 13127 ft 374 kts 227°
2026-04-16 15:48 -9.78856 -36.01876 13706 ft 378 kts 227°
2026-04-16 15:49 -9.80657 -36.03844 14170 ft 383 kts 228°
2026-04-16 15:49 -9.82477 -36.05830 14728 ft 385 kts 227°
2026-04-16 15:49 -9.84304 -36.07823 15289 ft 386 kts 227°
2026-04-16 15:49 -9.86137 -36.09823 15837 ft 388 kts 227°
2026-04-16 15:50 -9.87982 -36.11835 16386 ft 390 kts 227°
2026-04-16 15:50 -9.89835 -36.13855 16928 ft 392 kts 227°
2026-04-16 15:50 -9.91673 -36.15857 17469 ft 394 kts 226°
2026-04-16 15:50 -9.93543 -36.17895 18026 ft 395 kts 226°
2026-04-16 15:51 -9.95419 -36.19944 18496 ft 398 kts 226°
2026-04-16 15:51 -9.97309 -36.22010 18934 ft 400 kts 226°
2026-04-16 15:51 -9.99209 -36.24088 19383 ft 403 kts 226°
2026-04-16 15:51 -10.01122 -36.26184 19820 ft 405 kts 226°
2026-04-16 15:52 -10.03049 -36.28298 20244 ft 408 kts 226°
2026-04-16 15:52 -10.04981 -36.30416 20689 ft 411 kts 226°
2026-04-16 15:52 -10.06925 -36.32546 21124 ft 413 kts 226°
2026-04-16 15:52 -10.08882 -36.34690 21528 ft 415 kts 226°
2026-04-16 15:53 -10.10853 -36.36847 21931 ft 418 kts 226°
2026-04-16 15:53 -10.12838 -36.39015 22347 ft 420 kts 226°
2026-04-16 15:53 -10.14834 -36.41192 22738 ft 422 kts 226°
2026-04-16 15:53 -10.16838 -36.43382 23124 ft 425 kts 226°
2026-04-16 15:54 -10.18853 -36.45591 23496 ft 427 kts 226°
2026-04-16 15:54 -10.20880 -36.47811 23816 ft 429 kts 226°
2026-04-16 15:54 -10.22915 -36.50041 24133 ft 431 kts 226°
2026-04-16 15:54 -10.24956 -36.52280 24455 ft 433 kts 226°
2026-04-16 15:55 -10.27012 -36.54536 24772 ft 435 kts 226°
2026-04-16 15:55 -10.29071 -36.56796 25087 ft 437 kts 226°
2026-04-16 15:55 -10.31137 -36.59063 25427 ft 438 kts 226°
2026-04-16 15:55 -10.33184 -36.61309 25746 ft 439 kts 227°
2026-04-16 15:56 -10.35264 -36.63591 26057 ft 441 kts 227°
2026-04-16 15:56 -10.37356 -36.65886 26397 ft 443 kts 227°
2026-04-16 15:56 -10.39453 -36.68187 26706 ft 445 kts 227°
2026-04-16 15:56 -10.41560 -36.70502 26993 ft 447 kts 227°
2026-04-16 15:57 -10.43682 -36.72831 27308 ft 449 kts 227°
2026-04-16 15:57 -10.45808 -36.75160 27602 ft 451 kts 227°
2026-04-16 15:57 -10.47948 -36.77503 27881 ft 453 kts 227°
2026-04-16 15:57 -10.50094 -36.79858 28208 ft 454 kts 228°
2026-04-16 15:58 -10.52241 -36.82220 28487 ft 456 kts 228°
2026-04-16 15:58 -10.54399 -36.84599 28753 ft 459 kts 228°
2026-04-16 15:58 -10.56566 -36.86988 29045 ft 460 kts 228°
2026-04-16 15:58 -10.58742 -36.89383 29314 ft 463 kts 228°
2026-04-16 15:59 -10.63134 -36.94208 29867 ft 466 kts 228°
2026-04-16 15:59 -10.65332 -36.96623 30214 ft 465 kts 228°
2026-04-16 15:59 -10.67527 -36.99043 30550 ft 464 kts 228°
2026-04-16 16:00 -10.69711 -37.01452 30931 ft 462 kts 228°
2026-04-16 16:00 -10.71860 -37.03821 31258 ft 462 kts 227°
2026-04-16 16:00 -10.74035 -37.06217 31585 ft 461 kts 227°
2026-04-16 16:00 -10.76208 -37.08607 31946 ft 460 kts 227°
2026-04-16 16:01 -10.78379 -37.10995 32230 ft 460 kts 227°
2026-04-16 16:01 -10.80550 -37.13388 32549 ft 460 kts 227°
2026-04-16 16:01 -10.82719 -37.15782 32874 ft 460 kts 227°
2026-04-16 16:01 -10.84892 -37.18178 33092 ft 462 kts 226°
2026-04-16 16:02 -10.87078 -37.20589 33316 ft 465 kts 226°
2026-04-16 16:02 -10.89273 -37.23010 33599 ft 465 kts 226°
2026-04-16 16:02 -10.91468 -37.25431 33855 ft 467 kts 226°
2026-04-16 16:02 -10.93668 -37.27862 33920 ft 466 kts 226°
2026-04-16 16:03 -10.98053 -37.32710 33926 ft 466 kts 226°
2026-04-16 16:03 -11.02445 -37.37562 33931 ft 465 kts 226°
2026-04-16 16:04 -11.06830 -37.42404 33937 ft 465 kts 226°
2026-04-16 16:04 -11.11211 -37.47248 33938 ft 464 kts 225°
2026-04-16 16:05 -11.15588 -37.52087 33924 ft 464 kts 225°
2026-04-16 16:05 -11.19965 -37.56928 33933 ft 465 kts 225°
2026-04-16 16:06 -11.24341 -37.61777 33929 ft 465 kts 225°
2026-04-16 16:06 -11.28718 -37.66621 33926 ft 465 kts 225°
2026-04-16 16:07 -11.33061 -37.71438 33930 ft 465 kts 226°
2026-04-16 16:07 -11.37423 -37.76291 33924 ft 465 kts 226°
2026-04-16 16:08 -11.41796 -37.81147 33926 ft 465 kts 225°
2026-04-16 16:08 -11.46227 -37.85955 33925 ft 464 kts 220°
2026-04-16 16:09 -11.51357 -37.89891 33931 ft 461 kts 213°
2026-04-16 16:09 -11.56580 -37.93696 33924 ft 461 kts 213°
2026-04-16 16:10 -11.60919 -37.96861 33926 ft 461 kts 213°
2026-04-16 16:10 -11.66138 -38.00672 33929 ft 461 kts 213°
2026-04-16 16:11 -11.71361 -38.04475 33924 ft 461 kts 213°
2026-04-16 16:11 -11.76584 -38.08280 33933 ft 461 kts 213°
2026-04-16 16:12 -11.81804 -38.12084 33925 ft 461 kts 213°
2026-04-16 16:12 -11.87019 -38.15889 33928 ft 460 kts 213°
2026-04-16 16:13 -11.92218 -38.19695 33939 ft 459 kts 214°
2026-04-16 16:13 -11.97399 -38.23488 33931 ft 458 kts 213°
2026-04-16 16:14 -12.02587 -38.27275 33928 ft 458 kts 213°
2026-04-16 16:14 -12.07770 -38.31060 33927 ft 458 kts 213°
2026-04-16 16:15 -12.12951 -38.34849 33914 ft 458 kts 214°
2026-04-16 16:15 -12.18129 -38.38643 33919 ft 458 kts 214°
2026-04-16 16:16 -12.23310 -38.42439 33925 ft 458 kts 214°
2026-04-16 16:16 -12.28501 -38.46244 33910 ft 459 kts 214°
2026-04-16 16:17 -12.33699 -38.50054 33912 ft 460 kts 214°
2026-04-16 16:17 -12.38864 -38.53847 33924 ft 460 kts 214°
2026-04-16 16:18 -12.44055 -38.57661 33930 ft 459 kts 213°
2026-04-16 16:18 -12.49239 -38.61473 33936 ft 458 kts 214°
2026-04-16 16:19 -12.54417 -38.65279 33937 ft 458 kts 213°
2026-04-16 16:19 -12.59604 -38.69087 33927 ft 459 kts 214°
2026-04-16 16:20 -12.64786 -38.72894 33934 ft 459 kts 214°
2026-04-16 16:20 -12.69968 -38.76708 33939 ft 458 kts 214°
2026-04-16 16:21 -12.75142 -38.80521 33933 ft 458 kts 214°
2026-04-16 16:21 -12.80312 -38.84339 33939 ft 458 kts 214°
2026-04-16 16:22 -12.85478 -38.88152 33933 ft 458 kts 214°
2026-04-16 16:22 -12.90656 -38.91976 33940 ft 458 kts 214°
2026-04-16 16:23 -12.95794 -38.95782 33930 ft 458 kts 214°
2026-04-16 16:23 -13.00966 -38.99612 33939 ft 458 kts 214°
2026-04-16 16:24 -13.06137 -39.03449 33932 ft 458 kts 214°
2026-04-16 16:24 -13.11305 -39.07287 33928 ft 458 kts 213°
2026-04-16 16:25 -13.16468 -39.11128 33929 ft 458 kts 214°
2026-04-16 16:25 -13.21621 -39.14962 33925 ft 457 kts 214°
2026-04-16 16:26 -13.26781 -39.18790 33929 ft 458 kts 213°
2026-04-16 16:26 -13.31912 -39.22596 33917 ft 458 kts 214°
2026-04-16 16:27 -13.37075 -39.26437 33922 ft 458 kts 213°
2026-04-16 16:27 -13.42231 -39.30277 33930 ft 458 kts 214°
2026-04-16 16:28 -13.47387 -39.34125 33935 ft 458 kts 214°
2026-04-16 16:28 -13.52527 -39.37972 33919 ft 458 kts 214°
2026-04-16 16:29 -13.57676 -39.41828 33922 ft 458 kts 214°
2026-04-16 16:29 -13.62820 -39.45694 33936 ft 458 kts 214°
2026-04-16 16:30 -13.67965 -39.49555 33930 ft 457 kts 214°
2026-04-16 16:30 -13.73110 -39.53404 33940 ft 457 kts 214°
2026-04-16 16:31 -13.78253 -39.57259 33926 ft 457 kts 214°
2026-04-16 16:31 -13.83391 -39.61118 33934 ft 458 kts 214°
2026-04-16 16:32 -13.88531 -39.64982 33945 ft 457 kts 214°
2026-04-16 16:32 -13.93632 -39.68817 33945 ft 457 kts 214°
2026-04-16 16:33 -13.98762 -39.72681 33932 ft 457 kts 214°
2026-04-16 16:33 -14.03887 -39.76547 33944 ft 457 kts 214°
2026-04-16 16:34 -14.09018 -39.80414 33945 ft 456 kts 214°
2026-04-16 16:34 -14.14139 -39.84274 33933 ft 456 kts 214°
2026-04-16 16:35 -14.19249 -39.88129 33943 ft 455 kts 214°
2026-04-16 16:35 -14.24364 -39.91989 33954 ft 455 kts 214°
2026-04-16 16:36 -14.29483 -39.95849 33948 ft 455 kts 214°
2026-04-16 16:36 -14.34558 -39.99680 33959 ft 455 kts 214°
2026-04-16 16:37 -14.39684 -40.03559 33967 ft 454 kts 214°
2026-04-16 16:37 -14.44735 -40.07386 33950 ft 453 kts 214°
2026-04-16 16:38 -14.49819 -40.11232 33944 ft 453 kts 214°
2026-04-16 16:38 -14.54902 -40.15072 33948 ft 453 kts 214°
2026-04-16 16:39 -14.59992 -40.18925 33948 ft 455 kts 214°
2026-04-16 16:39 -14.65169 -40.22854 33951 ft 469 kts 214°
2026-04-16 16:40 -14.70448 -40.26863 33959 ft 472 kts 214°
2026-04-16 16:40 -14.75750 -40.30884 33960 ft 473 kts 214°
2026-04-16 16:41 -14.81059 -40.34911 33953 ft 473 kts 214°